Lakeland Region, FL

2:24 AM EDT on May 25, 2017 (GMT -0400)
Lakeland Linder Regional

Weather History for KLAL - May, 2013

Change the Weather History Date:

Tuesday, May 14, 2013

  Actual Average Record
Temperature  
Mean Temperature 66 °F -  
Max Temperature 82 °F 85 °F 93 °F (1995)
Min Temperature 51 °F 65 °F 51 °F (2013)
Cooling Degree Days 2    
Growing Degree Days 16 (Base 50)    
Moisture  
Dew Point 48 °F    
Average Humidity 60    
Maximum Humidity 82    
Minimum Humidity 21    
Precipitation  
Precipitation 0.00 in - - ()
Sea Level Pressure  
Sea Level Pressure 30.18 in    
Wind  
Wind Speed 4 mph (NNE)    
Max Wind Speed 13 mph    
Max Gust Speed 17 mph    
Visibility 12 miles    
Events      
Averages and records for this station are not official NWS values.
T = Trace of Precipitation, MM = Missing Value Source: NWS Daily Summary

Daily Weather History Graph

Daily Weather History Graph

Search for Another Location

Airport or City:

Trip Planner

Search our weather history database for the weather conditions in past years. The results will help you decide how hot, cold, wet, or windy it might be!

Date:

Astronomy

May. 14, 2013 Rise Set
Actual Time 6:38 AM EDT 8:10 PM EDT
Civil Twilight 6:13 AM EDT 8:35 PM EDT
Nautical Twilight 5:42 AM EDT 9:06 PM EDT
Astronomical Twilight 5:11 AM EDT 9:38 PM EDT
Moon 10:16 AM EDT (5/14) 11:59 PM EDT (5/14)
Length of Visible Light 14h 22m
Length of Day
13h 31m
Waxing Crescent, 19% of the Moon is Illuminated
May 14
Waxing Crescent
May 18
First Quarter
May 25
Full
May 31
Last Quarter
Jun 8
New

Hourly Weather History & Observations

Time (EDT) Temp. Dew Point Humidity Pressure Visibility Wind Dir Wind Speed Gust Speed Precip Events Conditions
12:15 AM 60.8 °F 51.8 °F 72% 30.15 in 10.0 mi NE 4.6 mph - N/A   Clear
12:35 AM 60.8 °F 51.8 °F 72% 30.16 in 10.0 mi North 4.6 mph - N/A   Clear
12:55 AM 60.8 °F 51.8 °F 72% 30.16 in 10.0 mi North 4.6 mph - N/A   Clear
1:15 AM 59.0 °F 51.8 °F 77% 30.15 in 10.0 mi NNE 5.8 mph - N/A   Clear
1:35 AM 59.0 °F 51.8 °F 77% 30.15 in 10.0 mi NE 5.8 mph - N/A   Clear
1:55 AM 59.0 °F 51.8 °F 77% 30.15 in 10.0 mi North 3.5 mph - N/A   Clear
2:15 AM 59.0 °F 50.0 °F 72% 30.15 in 10.0 mi Calm Calm - N/A   Clear
2:35 AM 59.0 °F 48.2 °F 67% 30.15 in 10.0 mi Calm Calm - N/A   Clear
2:55 AM 60.8 °F 46.4 °F 59% 30.16 in 10.0 mi Calm Calm - N/A   Clear
3:15 AM 57.2 °F 48.2 °F 72% 30.16 in 10.0 mi North 3.5 mph - N/A   Clear
3:35 AM 57.2 °F 48.2 °F 72% 30.16 in 10.0 mi North 4.6 mph - N/A   Clear
3:55 AM 57.2 °F 48.2 °F 72% 30.16 in 10.0 mi NNW 4.6 mph - N/A   Clear
4:15 AM 55.4 °F 48.2 °F 77% 30.16 in 10.0 mi North 4.6 mph - N/A   Clear
4:35 AM 55.4 °F 48.2 °F 77% 30.16 in 10.0 mi Calm Calm - N/A   Clear
4:55 AM 55.4 °F 48.2 °F 77% 30.17 in 10.0 mi Calm Calm - N/A   Clear
5:15 AM 55.4 °F 48.2 °F 77% 30.17 in 10.0 mi North 3.5 mph - N/A   Clear
5:35 AM 55.4 °F 48.2 °F 77% 30.17 in 10.0 mi North 3.5 mph - N/A   Clear
5:50 AM 55.4 °F 48.2 °F 77% 30.17 in 10.0 mi Calm Calm - N/A   Clear
5:55 AM 53.6 °F 46.4 °F 77% 30.18 in 10.0 mi North 3.5 mph - N/A   Clear
6:15 AM 53.6 °F 46.4 °F 77% 30.18 in 10.0 mi NNE 3.5 mph - N/A   Clear
6:35 AM 51.8 °F 46.4 °F 82% 30.18 in 10.0 mi Calm Calm - N/A   Clear
6:50 AM 53.6 °F 48.2 °F 82% 30.17 in 12.0 mi Calm Calm - N/A   Clear
7:50 AM 57.2 °F 50.0 °F 77% 30.21 in 12.0 mi Calm Calm - N/A   Clear
8:50 AM 66.2 °F 53.6 °F 64% 30.22 in 12.0 mi NNE 5.8 mph - N/A   Clear
9:50 AM 71.6 °F 51.8 °F 50% 30.22 in 15.0 mi ENE 11.5 mph - N/A   Clear
10:50 AM 73.4 °F 46.4 °F 38% 30.23 in 15.0 mi NE 9.2 mph - N/A   Clear
11:50 AM 77.0 °F 44.6 °F 32% 30.23 in 15.0 mi ENE 12.7 mph 17.3 mph N/A   Clear
12:50 PM 78.8 °F 42.8 °F 28% 30.22 in 15.0 mi North 8.1 mph - N/A   Clear
1:50 PM 80.6 °F 42.8 °F 26% 30.21 in 15.0 mi NE 5.8 mph - N/A   Clear
2:52 PM 80.6 °F 42.8 °F 26% 30.18 in 25.0 mi ENE 11.5 mph 17.3 mph N/A   Clear
3:54 PM 82.4 °F 41.0 °F 23% 30.16 in 20.0 mi Calm Calm - N/A   Clear
4:56 PM 82.4 °F 39.2 °F 21% 30.15 in 20.0 mi NNE 4.6 mph - N/A   Clear
5:54 PM 82.4 °F 39.2 °F 21% 30.14 in 20.0 mi NNE 10.4 mph - N/A   Clear
6:51 PM 80.6 °F 39.2 °F 23% 30.13 in 20.0 mi North 8.1 mph - N/A   Clear
7:50 PM 78.8 °F 42.8 °F 28% 30.14 in 20.0 mi NE 6.9 mph - N/A   Clear
8:52 PM 73.4 °F 42.8 °F 33% 30.16 in 15.0 mi NNE 4.6 mph - N/A   Clear
9:52 PM 71.6 °F 53.6 °F 53% 30.19 in 15.0 mi ESE 10.4 mph - N/A   Clear
10:55 PM 68.0 °F 55.4 °F 64% 30.21 in 10.0 mi East 5.8 mph - N/A   Clear
11:15 PM 68.0 °F 55.4 °F 64% 30.21 in 10.0 mi East 5.8 mph - N/A   Clear
11:35 PM 66.2 °F 55.4 °F 68% 30.21 in 10.0 mi East 4.6 mph - N/A   Clear
11:55 PM 66.2 °F 55.4 °F 68% 30.21 in 10.0 mi East 3.5 mph - N/A   Clear